Wind_Speed
4 5 7 5 5 4 4 5 5 7 7 8 8 9 9 9 8 7 7 6 4 3 4 5 4 6 7 5 7 7 9 11 13 13 14 12 13 13 14 13 12 15 15
6 5 7 5 4 4 4 5 5 6 7 8 8 8 8 7 7 5 4 3 2 2 4 7 7 5 6 5 4 5 8 11 12 11 10 10 12 13 16 14 12 11 11
7 6 5 5 3 3 4 4 4 5 6 6 6 5 5 4 3 3 3 3 4 6 5 7 7 7 5 5 4 6 8 9 10 11 10 8 9 13 13 13 13 11 9
8 7 5 5 5 5 4 3 3 3 4 3 4 4 4 4 3 3 4 5 5 5 5 5 5 6 6 5 6 6 6 8 9 11 7 8 9 14 13 12 12 11 10
7 6 5 5 4 4 3 1 1 1 1 2 1 1 2 2 2 2 3 4 3 2 3 2 3 4 5 6 6 6 6 7 7 9 8 8 10 13 12 12 12 10 9
8 6 5 4 3 2 2 1 1 2 2 2 2 2 1 1 0 1 1 1 1 2 1 0 0 2 3 4 5 5 5 5 7 6 8 9 9 14 14 13 11 11 11
9 8 7 6 5 4 4 3 4 3 3 3 3 3 3 3 3 3 3 2 2 2 3 2 2 1 1 3 4 4 2 2 6 6 9 9 8 16 13 11 10 11 11
8 8 7 6 5 7 7 7 7 7 6 6 6 5 5 5 5 5 5 5 5 4 4 4 5 5 4 4 5 4 2 1 4 6 9 8 7 12 12 10 11 11 9
4 4 5 5 6 8 11 10 9 8 8 9 9 8 8 8 8 8 8 8 8 7 6 6 6 7 6 6 7 7 5 3 4 5 7 6 9 9 9 9 12 12 11
3 3 3 1 2 5 7 7 8 9 9 9 10 10 11 11 11 11 10 10 10 10 9 8 8 8 8 7 7 9 9 7 4 8 6 6 6 8 11 11 12 10 11
3 3 3 4 4 5 6 7 8 7 8 8 9 10 10 9 10 12 13 13 12 12 11 11 10 10 9 9 8 9 10 9 8 7 8 9 6 8 12 14 15 12 12
4 5 7 8 8 9 8 6 7 9 9 9 9 10 10 10 10 13 15 15 14 14 14 14 13 12 12 9 9 10 10 11 11 10 8 11 8 7 13 19 17 14 11
5 7 9 11 12 12 11 10 9 8 8 9 11 11 11 11 11 11 11 12 13 14 14 15 15 15 13 12 11 11 11 11 13 13 13 14 11 8 9 14 15 12 11
7 8 9 10 12 15 15 14 14 12 11 9 10 11 11 12 11 10 9 10 12 12 14 16 16 16 16 15 12 12 13 13 12 14 13 16 14 11 13 14 12 12 11
7 9 9 9 9 10 11 14 14 15 14 12 12 12 11 10 11 11 11 11 11 11 13 15 17 16 15 17 16 14 13 14 15 14 15 17 16 14 14 16 16 15 13
10 10 9 8 8 7 7 9 11 12 13 14 13 13 12 11 11 11 12 13 12 13 13 15 17 17 18 18 16 17 15 15 16 17 17 16 18 18 16 16 17 16 15
16 16 14 14 12 8 4 4 8 10 11 11 12 13 13 12 12 13 13 13 14 15 15 17 17 18 18 18 19 20 19 17 16 17 19 20 18 19 20 20 18 16 17
17 19 18 17 15 13 11 6 4 5 9 12 13 12 12 12 13 13 13 12 13 15 16 17 18 18 20 20 22 23 24 24 21 19 18 21 23 22 21 21 21 20 18
20 20 20 20 18 16 15 12 9 6 6 6 7 10 12 13 13 13 14 15 15 15 16 17 19 20 23 24 25 26 26 26 26 26 25 21 23 26 26 26 24 23 22
19 20 21 21 20 20 18 14 12 11 10 10 9 8 9 12 13 14 14 15 16 17 16 16 18 16 19 18 18 20 27 30 30 29 29 28 26 28 29 29 27 27 28
19 19 22 22 24 24 23 22 20 19 16 15 15 16 14 14 14 13 15 15 16 16 16 15 15 16 16 17 20 22 22 25 27 30 31 29 28 28 30 31 31 29 28
20 22 23 25 26 26 26 26 25 24 21 19 19 17 17 19 21 18 17 19 19 19 19 18 16 19 18 18 16 17 18 17 20 26 29 31 27 25 27 30 31 33 32
20 22 23 24 26 27 28 29 28 27 27 26 24 23 22 21 21 22 21 21 22 24 24 23 21 20 23 21 22 17 11 11 12 13 21 27 33 29 23 23 26 30 33
18 20 21 24 26 27 29 30 31 32 33 33 33 32 30 28 27 25 23 24 25 26 28 28 28 26 25 28 25 27 28 22 14 11 11 18 25 31 36 37 33 31 31
19 21 23 24 26 27 28 28 29 31 33 34 35 36 35 35 33 30 29 27 27 29 29 29 30 30 28 31 32 30 28 31 31 26 23 15 14 16 19 23 25 26 31
21 24 27 29 30 31 32 32 32 32 33 34 34 36 36 36 36 36 34 33 31 30 31 32 31 32 33 32 35 37 33 26 25 26 26 26 21 16 16 19 21 20 21
Wind_Direction
135 151 157 160 145 144 128 106 93 92 94 102 98 97 97 104 108 114 121 121 99 37 33 62 69 102 111 110 110 102 114 139 137 126 124 115 115 114 121 129 116 117 117
135 134 149 167 162 155 141 124 99 86 89 96 106 111 115 113 111 114 116 119 90 50 62 77 89 100 127 125 112 109 121 139 151 135 127 122 123 122 118 124 142 138 136
121 117 130 148 146 147 141 125 103 87 87 94 101 104 106 112 118 109 104 97 98 101 81 74 87 98 96 106 109 119 127 136 154 158 145 131 140 133 128 124 117 120 123
113 111 113 126 124 127 135 123 99 86 83 84 92 98 97 98 104 105 101 106 105 103 80 65 72 88 102 104 107 115 123 131 143 153 135 137 156 148 143 130 123 123 122
99 100 114 108 104 105 115 109 95 72 74 91 99 98 78 66 95 107 108 115 131 134 69 66 70 80 102 106 107 105 115 128 137 140 134 144 159 162 153 142 133 126 125
82 73 77 79 76 62 52 41 17 336 327 332 325 316 308 263 205 226 135 112 148 189 303 277 55 86 113 124 116 110 104 127 141 152 151 160 156 160 155 151 142 132 130
72 66 55 48 37 29 17 353 335 321 308 299 294 295 289 271 251 243 245 267 272 270 274 261 237 260 220 192 169 136 104 136 164 174 177 174 165 160 157 158 152 141 141
65 61 57 54 47 29 12 354 341 325 312 302 292 283 273 267 266 259 256 260 270 273 267 263 240 253 273 249 226 207 171 126 172 181 186 192 195 159 163 171 168 151 150
105 91 80 57 40 19 357 343 333 321 310 304 299 292 284 276 266 262 260 261 265 268 261 259 250 253 269 266 244 230 225 195 169 184 189 195 205 205 191 193 180 166 157
176 173 159 106 8 354 347 338 331 322 316 308 299 293 291 288 283 276 269 262 260 261 255 249 252 256 261 264 251 239 233 226 225 206 208 213 215 217 205 191 188 185 177
220 230 243 274 283 308 329 330 328 328 326 321 317 309 301 296 288 284 277 274 263 255 251 247 246 250 256 259 252 246 233 230 233 228 224 224 224 239 236 212 197 194 193
250 266 276 280 282 285 292 298 308 314 315 314 315 314 311 307 294 287 276 274 270 266 260 252 246 245 246 245 256 247 238 232 232 232 238 230 242 267 218 204 194 197 199
296 288 278 276 277 275 274 280 282 284 293 305 305 302 301 301 307 304 294 282 272 268 264 259 254 248 240 233 238 247 245 237 232 232 234 239 236 231 208 200 187 199 208
320 308 301 291 276 267 266 269 274 275 275 277 286 295 297 295 293 296 297 295 281 275 270 263 258 256 249 245 238 244 244 243 237 237 234 237 236 225 210 211 202 210 214
357 343 327 315 295 281 268 262 264 267 268 274 284 288 282 287 290 287 287 291 293 283 275 270 264 259 256 252 245 240 242 244 242 242 241 238 236 231 221 215 210 217 225
23 15 2 341 328 305 279 267 260 258 263 272 282 285 278 277 276 279 279 279 282 285 282 274 267 263 257 253 251 251 246 246 245 243 243 245 240 235 231 225 224 222 225
34 28 20 17 8 350 324 279 264 257 258 263 276 279 274 270 271 274 275 278 276 271 274 272 271 268 268 266 261 253 252 249 247 246 245 243 246 236 230 228 231 235 242
40 34 30 24 16 11 7 348 316 286 270 262 261 262 265 270 273 272 272 274 274 271 271 271 268 266 268 268 264 263 259 256 254 248 247 246 246 244 237 233 232 236 240
42 39 35 32 26 18 13 8 356 331 310 298 278 268 271 273 271 272 276 276 271 272 273 269 267 270 272 271 269 267 263 257 253 254 250 246 245 244 245 244 241 241 244
39 34 31 29 27 25 21 15 10 359 345 332 322 316 298 281 278 278 275 278 278 274 273 276 273 270 270 268 270 270 271 266 257 252 252 253 246 246 244 245 244 242 244
35 29 24 19 17 14 14 12 6 1 350 336 326 314 306 309 296 287 281 281 283 280 275 275 273 272 268 275 273 274 274 267 260 257 248 248 249 246 245 245 244 243 243
26 22 18 13 10 6 3 0 356 351 345 337 329 321 313 301 300 306 296 286 286 286 278 273 271 271 271 265 265 278 280 276 260 255 253 245 248 246 246 244 245 246 246
19 15 11 6 2 358 353 348 343 337 333 328 324 319 312 305 300 297 294 292 288 290 286 281 267 260 267 267 271 251 267 261 273 260 251 243 244 242 242 242 243 244 246
9 4 359 355 351 348 344 341 338 334 329 325 321 315 310 306 297 295 291 286 285 285 284 283 280 267 260 261 262 265 252 251 263 277 274 252 248 245 246 246 246 245 244
354 351 349 345 342 339 337 333 328 324 320 317 314 310 306 303 300 295 291 287 278 274 273 272 275 273 262 259 258 258 265 258 251 251 260 256 251 245 243 244 241 244 244
345 343 341 338 337 335 332 329 325 321 317 313 309 306 303 299 295 293 291 286 280 272 265 265 261 264 265 258 257 254 253 248 247 243 246 250 251 247 244 238 232 233 238
Height
1554 1553 1554 1554 1555 1556 1556 1556 1556 1557 1556 1556 1557 1556 1557 1556 1556 1556 1556 1556 1556 1556 1555 1555 1554 1553 1553 1552 1552 1552 1552 1552 1552 1553 1553 1554 1555 1555 1555 1556 1557 1557 1557
1554 1555 1555 1556 1557 1557 1557 1557 1558 1558 1558 1559 1559 1559 1559 1559 1558 1558 1557 1557 1557 1556 1556 1556 1555 1554 1554 1554 1553 1553 1553 1553 1553 1554 1555 1556 1556 1557 1557 1558 1558 1558 1559
1556 1557 1557 1557 1558 1558 1559 1559 1560 1560 1560 1560 1561 1561 1561 1560 1560 1559 1559 1559 1558 1558 1557 1557 1557 1557 1555 1555 1555 1554 1554 1554 1554 1555 1557 1560 1558 1559 1559 1559 1560 1560 1561
1558 1559 1559 1558 1559 1559 1560 1561 1561 1561 1562 1561 1562 1562 1562 1562 1561 1561 1560 1560 1560 1559 1559 1558 1558 1558 1558 1557 1556 1556 1556 1556 1556 1556 1559 1560 1561 1559 1560 1561 1561 1562 1563
1560 1560 1559 1560 1560 1560 1561 1560 1561 1562 1563 1561 1562 1563 1563 1563 1563 1562 1562 1561 1561 1561 1561 1560 1559 1559 1559 1559 1558 1558 1558 1557 1557 1558 1559 1559 1560 1560 1561 1562 1563 1563 1564
1562 1563 1561 1561 1562 1562 1563 1563 1563 1564 1563 1563 1564 1564 1563 1563 1565 1563 1563 1562 1562 1562 1562 1562 1561 1560 1560 1560 1560 1560 1559 1559 1559 1560 1560 1560 1560 1561 1562 1563 1564 1564 1565
1564 1564 1565 1564 1564 1564 1564 1563 1564 1564 1563 1563 1563 1563 1564 1564 1564 1565 1563 1563 1563 1563 1563 1562 1562 1561 1561 1561 1561 1561 1561 1560 1560 1561 1561 1561 1561 1562 1563 1564 1565 1565 1566
1566 1565 1565 1565 1565 1565 1565 1564 1564 1564 1563 1563 1563 1563 1563 1563 1563 1563 1563 1563 1563 1562 1562 1562 1562 1561 1561 1561 1561 1561 1561 1561 1561 1561 1561 1562 1561 1562 1564 1565 1566 1566 1567
1565 1565 1565 1565 1565 1565 1565 1565 1564 1564 1564 1563 1563 1563 1562 1562 1562 1562 1562 1562 1562 1562 1562 1562 1562 1561 1561 1561 1561 1561 1562 1562 1563 1562 1562 1562 1562 1563 1564 1565 1566 1566 1567
1565 1564 1564 1565 1565 1565 1564 1564 1564 1563 1563 1563 1563 1562 1562 1562 1561 1560 1561 1561 1561 1561 1561 1561 1561 1561 1560 1560 1560 1560 1561 1562 1563 1562 1562 1562 1562 1563 1564 1565 1566 1567 1569
1565 1565 1565 1565 1565 1564 1564 1564 1563 1562 1562 1562 1561 1561 1561 1561 1561 1560 1559 1559 1559 1559 1559 1559 1559 1560 1559 1559 1559 1559 1560 1561 1562 1562 1561 1560 1561 1562 1563 1564 1565 1567 1568
1565 1565 1564 1564 1564 1564 1563 1562 1562 1562 1562 1561 1560 1559 1559 1559 1559 1558 1557 1557 1557 1558 1558 1557 1558 1557 1557 1559 1557 1558 1558 1559 1560 1560 1561 1559 1560 1560 1559 1562 1564 1566 1567
1563 1562 1562 1562 1561 1561 1561 1561 1561 1560 1560 1559 1559 1558 1557 1557 1557 1556 1556 1556 1555 1555 1555 1556 1556 1556 1556 1557 1556 1556 1556 1556 1557 1558 1558 1558 1559 1560 1560 1559 1561 1565 1567
1561 1561 1560 1559 1558 1558 1558 1558 1559 1558 1558 1557 1556 1555 1555 1555 1554 1554 1554 1554 1554 1554 1554 1553 1553 1553 1553 1554 1554 1554 1554 1554 1555 1556 1557 1556 1558 1559 1560 1561 1562 1564 1565
1561 1559 1558 1557 1556 1555 1555 1555 1555 1556 1556 1555 1554 1553 1552 1552 1552 1551 1551 1551 1552 1552 1552 1551 1550 1551 1551 1551 1552 1552 1553 1552 1552 1553 1553 1554 1555 1556 1557 1558 1560 1561 1563
1560 1558 1556 1554 1554 1553 1553 1553 1553 1553 1553 1553 1552 1551 1550 1549 1549 1548 1548 1548 1548 1548 1549 1549 1548 1547 1548 1548 1549 1549 1550 1550 1550 1550 1551 1551 1552 1554 1555 1556 1558 1559 1560
1560 1559 1557 1555 1553 1551 1550 1550 1550 1550 1550 1549 1550 1549 1548 1547 1546 1545 1545 1544 1544 1544 1545 1546 1546 1545 1545 1545 1546 1546 1546 1547 1547 1547 1547 1548 1549 1550 1551 1553 1554 1556 1557
1562 1560 1558 1556 1554 1552 1550 1548 1548 1547 1547 1547 1546 1545 1544 1544 1543 1543 1542 1541 1540 1540 1541 1542 1542 1542 1542 1542 1542 1542 1542 1542 1543 1544 1545 1544 1545 1546 1547 1549 1550 1552 1553
1563 1561 1559 1556 1553 1552 1551 1550 1548 1547 1546 1545 1543 1542 1542 1541 1540 1540 1539 1538 1537 1536 1537 1537 1537 1538 1538 1538 1537 1537 1537 1537 1538 1538 1539 1540 1541 1542 1543 1544 1546 1548 1549
1564 1562 1559 1556 1554 1552 1550 1549 1548 1546 1545 1543 1542 1540 1539 1538 1537 1536 1536 1535 1534 1534 1533 1533 1533 1533 1534 1535 1535 1533 1531 1531 1532 1532 1533 1534 1536 1536 1538 1539 1540 1542 1544
1565 1563 1560 1557 1554 1551 1549 1547 1545 1543 1543 1542 1541 1539 1538 1536 1535 1533 1532 1532 1531 1530 1530 1530 1529 1529 1530 1531 1529 1528 1526 1525 1525 1525 1527 1528 1529 1530 1532 1534 1535 1537 1538
1566 1563 1560 1557 1554 1551 1549 1547 1545 1543 1541 1539 1538 1536 1535 1534 1532 1530 1529 1528 1527 1526 1526 1525 1526 1525 1525 1526 1526 1526 1523 1522 1518 1519 1519 1521 1523 1525 1525 1527 1529 1530 1532
1566 1563 1560 1558 1555 1552 1549 1546 1544 1541 1539 1536 1534 1532 1530 1529 1528 1526 1524 1523 1522 1521 1521 1520 1520 1520 1520 1521 1521 1524 1522 1519 1517 1513 1513 1514 1515 1518 1520 1521 1522 1524 1525
1565 1563 1561 1558 1554 1551 1547 1544 1542 1538 1534 1531 1528 1526 1524 1522 1521 1520 1518 1517 1516 1514 1514 1514 1514 1514 1515 1514 1516 1515 1516 1517 1515 1513 1509 1509 1509 1509 1511 1513 1515 1517 1518
1565 1562 1558 1556 1553 1549 1546 1543 1540 1536 1531 1527 1523 1520 1517 1515 1513 1512 1510 1509 1508 1507 1506 1506 1506 1507 1508 1507 1508 1510 1508 1508 1509 1510 1508 1508 1505 1505 1505 1505 1508 1510 1511
1564 1560 1556 1553 1548 1544 1540 1537 1533 1528 1524 1520 1517 1513 1510 1507 1505 1504 1502 1500 1499 1498 1497 1496 1497 1497 1499 1499 1499 1500 1501 1501 1501 1502 1502 1503 1503 1503 1502 1501 1501 1503 1504